Year,Month,Day,Hour,Minute,Value (Times are PST for temperature in C)
2014,09,13,09,02,16.70
2014,09,13,09,03,16.70
2014,09,13,09,04,16.70
2014,09,13,09,05,16.70
2014,09,13,09,06,16.70
2014,09,13,09,07,16.70
2014,09,13,09,08,16.70
2014,09,13,09,09,16.70
2014,09,13,09,10,16.70
2014,09,13,09,11,16.70
2014,09,13,09,12,16.70
2014,09,13,09,13,16.70
2014,09,13,09,14,16.70
2014,09,13,09,15,16.80
2014,09,13,09,16,16.90
2014,09,13,09,17,16.90
2014,09,13,09,18,17.00
2014,09,13,09,19,17.10
2014,09,13,09,20,17.10
2014,09,13,09,21,17.20
2014,09,13,09,22,17.20
2014,09,13,09,23,17.30
2014,09,13,09,24,17.30
2014,09,13,09,25,17.30
2014,09,13,09,26,17.30
2014,09,13,09,27,17.30
2014,09,13,09,28,17.30
2014,09,13,09,29,17.30
2014,09,13,09,30,17.40
2014,09,13,09,31,17.50
2014,09,13,09,32,17.50
2014,09,13,09,33,17.50
2014,09,13,09,34,17.40
2014,09,13,09,35,17.40
2014,09,13,09,36,17.40
2014,09,13,09,37,17.40
2014,09,13,09,38,17.40
2014,09,13,09,39,17.50
2014,09,13,09,40,17.50
2014,09,13,09,41,17.40
2014,09,13,09,42,17.40
2014,09,13,09,43,17.40
2014,09,13,09,44,17.40
2014,09,13,09,45,17.50
2014,09,13,09,46,17.60
2014,09,13,09,47,17.70
2014,09,13,09,48,17.80
2014,09,13,09,49,17.70
2014,09,13,09,50,17.60
2014,09,13,09,51,17.50
2014,09,13,09,52,17.50
2014,09,13,09,53,17.40
2014,09,13,09,54,17.30
2014,09,13,09,55,17.30
2014,09,13,09,56,17.30
2014,09,13,09,57,17.30
2014,09,13,09,58,17.30
2014,09,13,09,59,17.30
2014,09,13,10,00,17.30
2014,09,13,10,01,17.30
2014,09,13,10,02,17.30
2014,09,13,10,03,17.30
2014,09,13,10,04,17.30
2014,09,13,10,05,17.30
2014,09,13,10,06,17.30
2014,09,13,10,07,17.30
2014,09,13,10,08,17.40
2014,09,13,10,09,17.40
2014,09,13,10,10,17.40
2014,09,13,10,11,17.50
2014,09,13,10,12,17.50
2014,09,13,10,13,17.60
2014,09,13,10,14,17.70
2014,09,13,10,15,17.70
2014,09,13,10,16,17.80
2014,09,13,10,17,17.80
2014,09,13,10,18,17.80
2014,09,13,10,19,17.70
2014,09,13,10,20,17.80
2014,09,13,10,21,17.80
2014,09,13,10,22,17.80
2014,09,13,10,23,17.90
2014,09,13,10,24,17.90
2014,09,13,10,25,18.00
2014,09,13,10,26,18.10
2014,09,13,10,27,18.10
2014,09,13,10,28,18.20
2014,09,13,10,29,18.30
2014,09,13,10,30,18.50
2014,09,13,10,31,18.50
2014,09,13,10,32,18.60
2014,09,13,10,33,18.70
2014,09,13,10,34,18.70
2014,09,13,10,35,18.70
2014,09,13,10,36,18.70
2014,09,13,10,37,18.70
2014,09,13,10,38,18.70
2014,09,13,10,39,18.80
2014,09,13,10,40,18.80
2014,09,13,10,41,18.80
2014,09,13,10,42,18.90
2014,09,13,10,43,18.90
2014,09,13,10,44,19.00
2014,09,13,10,45,19.10
2014,09,13,10,46,19.10
2014,09,13,10,47,19.10
2014,09,13,10,48,19.10
2014,09,13,10,49,19.10
2014,09,13,10,50,18.90
2014,09,13,10,51,19.00
2014,09,13,10,52,19.10
2014,09,13,10,53,19.10
2014,09,13,10,54,19.10
2014,09,13,10,55,19.20
2014,09,13,10,56,19.20
2014,09,13,10,57,19.10
2014,09,13,10,58,19.10
2014,09,13,10,59,19.10
2014,09,13,11,00,19.10
2014,09,13,11,01,19.10
2014,09,13,11,02,19.10
2014,09,13,11,03,19.10
2014,09,13,11,04,19.20
2014,09,13,11,05,19.30
2014,09,13,11,06,19.30
2014,09,13,11,07,19.40
2014,09,13,11,08,19.30
2014,09,13,11,09,19.30
2014,09,13,11,10,19.30
2014,09,13,11,11,19.30
2014,09,13,11,12,19.30
2014,09,13,11,13,19.30
2014,09,13,11,14,19.40
2014,09,13,11,15,19.30
2014,09,13,11,16,19.30
2014,09,13,11,17,19.30
2014,09,13,11,18,19.20
2014,09,13,11,19,19.20
2014,09,13,11,20,19.20
2014,09,13,11,21,19.30
2014,09,13,11,22,19.50
2014,09,13,11,23,19.60
2014,09,13,11,24,19.70
2014,09,13,11,25,19.80
2014,09,13,11,26,19.80
2014,09,13,11,27,19.90
2014,09,13,11,28,19.90
2014,09,13,11,29,19.90
2014,09,13,11,30,19.90
2014,09,13,11,31,19.90
2014,09,13,11,32,19.90
2014,09,13,11,33,19.80
2014,09,13,11,34,19.90
2014,09,13,11,35,19.90
2014,09,13,11,36,20.10
2014,09,13,11,37,20.10
2014,09,13,11,38,20.20
2014,09,13,11,39,20.20
2014,09,13,11,40,20.20
2014,09,13,11,41,20.20
2014,09,13,11,42,20.20
2014,09,13,11,43,20.20
2014,09,13,11,44,20.20
2014,09,13,11,45,20.20
2014,09,13,11,46,20.20
2014,09,13,11,47,20.20
2014,09,13,11,48,20.20
2014,09,13,11,49,20.30
2014,09,13,11,50,20.30
2014,09,13,11,51,20.40
2014,09,13,11,52,20.40
2014,09,13,11,53,20.40
2014,09,13,11,54,20.30
2014,09,13,11,55,20.50
2014,09,13,11,56,20.50
2014,09,13,11,57,20.50
2014,09,13,11,58,20.50
2014,09,13,11,59,20.50
2014,09,13,12,00,20.60
2014,09,13,12,01,20.70
2014,09,13,12,02,20.80
2014,09,13,12,03,20.90
2014,09,13,12,04,21.00
2014,09,13,12,05,21.10
2014,09,13,12,06,21.10
2014,09,13,12,07,21.20
2014,09,13,12,08,21.20
2014,09,13,12,09,21.30
2014,09,13,12,10,21.40
2014,09,13,12,11,21.60
2014,09,13,12,12,21.70
2014,09,13,12,13,21.90
2014,09,13,12,14,22.00
2014,09,13,12,15,22.00
2014,09,13,12,16,22.10
2014,09,13,12,17,22.20
2014,09,13,12,18,22.10
2014,09,13,12,19,22.10
2014,09,13,12,20,22.00
2014,09,13,12,21,21.90
2014,09,13,12,22,21.90
2014,09,13,12,23,21.90
2014,09,13,12,24,21.70
2014,09,13,12,25,21.70
2014,09,13,12,26,21.60
2014,09,13,12,27,21.70
2014,09,13,12,28,21.70
2014,09,13,12,29,21.70
2014,09,13,12,30,21.60
2014,09,13,12,31,21.40
2014,09,13,12,32,21.30
2014,09,13,12,33,21.30
2014,09,13,12,34,21.30
2014,09,13,12,35,21.40
2014,09,13,12,36,21.50
2014,09,13,12,37,21.60
2014,09,13,12,38,21.60
2014,09,13,12,39,21.60
2014,09,13,12,40,21.60
2014,09,13,12,41,21.60
2014,09,13,12,42,21.70
2014,09,13,12,43,21.70
2014,09,13,12,44,21.90
2014,09,13,12,45,22.00
2014,09,13,12,46,22.20
2014,09,13,12,47,22.20
2014,09,13,12,48,22.30
2014,09,13,12,49,22.40
2014,09,13,12,50,22.40
2014,09,13,12,51,22.40
2014,09,13,12,52,22.40
2014,09,13,12,53,22.40
2014,09,13,12,54,22.40
2014,09,13,12,55,22.40
2014,09,13,12,56,22.50
2014,09,13,12,57,22.70
2014,09,13,12,58,22.90
2014,09,13,12,59,23.20
2014,09,13,13,00,23.50
2014,09,13,13,01,23.60
2014,09,13,13,02,23.70
2014,09,13,13,03,23.70
2014,09,13,13,04,23.80
2014,09,13,13,05,23.90
2014,09,13,13,06,24.10
2014,09,13,13,07,24.10
2014,09,13,13,08,23.90
2014,09,13,13,09,23.70
2014,09,13,13,10,23.30
2014,09,13,13,11,23.00
2014,09,13,13,12,22.80
2014,09,13,13,13,22.60
2014,09,13,13,14,22.30
2014,09,13,13,15,22.10
2014,09,13,13,16,22.00
2014,09,13,13,17,21.90
2014,09,13,13,18,21.90
2014,09,13,13,19,22.00
2014,09,13,13,20,22.00
2014,09,13,13,21,22.10
2014,09,13,13,22,22.10
2014,09,13,13,23,22.20
2014,09,13,13,24,22.40
2014,09,13,13,25,22.60
2014,09,13,13,26,22.80
2014,09,13,13,27,22.90
2014,09,13,13,28,23.20
2014,09,13,13,29,23.30
2014,09,13,13,30,23.20
2014,09,13,13,31,23.00
2014,09,13,13,32,22.80
2014,09,13,13,33,22.70
2014,09,13,13,34,22.60
2014,09,13,13,35,22.50
2014,09,13,13,36,22.40
2014,09,13,13,37,22.50
2014,09,13,13,38,22.60
2014,09,13,13,39,22.70
2014,09,13,13,40,22.90
2014,09,13,13,41,23.10
2014,09,13,13,42,23.40
2014,09,13,13,43,23.70
2014,09,13,13,44,23.90
2014,09,13,13,45,24.10
2014,09,13,13,46,24.40
2014,09,13,13,47,24.50
2014,09,13,13,48,24.50
2014,09,13,13,49,24.50
2014,09,13,13,50,24.40
2014,09,13,13,51,24.40
2014,09,13,13,52,24.50
2014,09,13,13,53,24.50
2014,09,13,13,54,24.50
2014,09,13,13,55,24.50
2014,09,13,13,56,24.40
2014,09,13,13,57,24.10
2014,09,13,13,58,23.70
2014,09,13,13,59,23.70
2014,09,13,14,00,23.20
2014,09,13,14,01,23.00
2014,09,13,14,02,22.90
2014,09,13,14,03,22.90
2014,09,13,14,04,22.80
2014,09,13,14,05,22.80
2014,09,13,14,06,22.80
2014,09,13,14,07,23.00
2014,09,13,14,08,23.10
2014,09,13,14,09,23.10
2014,09,13,14,10,23.10
2014,09,13,14,11,23.00
2014,09,13,14,12,23.00
2014,09,13,14,13,23.10
2014,09,13,14,14,23.30
2014,09,13,14,15,23.30
2014,09,13,14,16,23.30
2014,09,13,14,17,23.30
2014,09,13,14,18,23.20
2014,09,13,14,19,23.20
2014,09,13,14,20,23.10
2014,09,13,14,21,23.20
2014,09,13,14,22,23.20
2014,09,13,14,23,23.30
2014,09,13,14,24,23.40
2014,09,13,14,25,23.60
2014,09,13,14,26,23.70
2014,09,13,14,27,23.70
2014,09,13,14,28,23.80
2014,09,13,14,29,23.80
2014,09,13,14,30,24.00
2014,09,13,14,31,24.10
2014,09,13,14,32,24.10
2014,09,13,14,33,24.10
2014,09,13,14,34,24.20
2014,09,13,14,35,24.30
2014,09,13,14,36,24.30
2014,09,13,14,37,24.40
2014,09,13,14,38,24.40
2014,09,13,14,39,24.30
2014,09,13,14,40,24.10
2014,09,13,14,41,23.90
2014,09,13,14,42,23.50
2014,09,13,14,43,23.30
2014,09,13,14,44,23.00
2014,09,13,14,45,22.80
2014,09,13,14,46,22.60
2014,09,13,14,47,22.60
2014,09,13,14,48,22.60
2014,09,13,14,49,22.70
2014,09,13,14,50,22.70
2014,09,13,14,51,22.70
2014,09,13,14,52,22.60
2014,09,13,14,53,22.60
2014,09,13,14,54,22.50
2014,09,13,14,55,22.30
2014,09,13,14,56,22.30
2014,09,13,14,57,22.20
2014,09,13,14,58,22.00
2014,09,13,14,59,21.90
2014,09,13,15,00,21.70
2014,09,13,15,01,21.50
2014,09,13,15,02,21.30
2014,09,13,15,03,21.10
2014,09,13,15,04,21.00
2014,09,13,15,05,21.00
2014,09,13,15,06,21.00
2014,09,13,15,07,20.80
2014,09,13,15,08,20.70
2014,09,13,15,09,20.50
2014,09,13,15,10,20.50
2014,09,13,15,11,20.40
2014,09,13,15,12,20.50
2014,09,13,15,13,20.60
2014,09,13,15,14,20.70
2014,09,13,15,15,20.80
2014,09,13,15,16,20.80
2014,09,13,15,17,20.80
2014,09,13,15,18,20.80
2014,09,13,15,19,20.70
2014,09,13,15,20,20.60
2014,09,13,15,21,20.50
2014,09,13,15,22,20.40
2014,09,13,15,23,20.40
2014,09,13,15,24,20.30
2014,09,13,15,25,20.30
2014,09,13,15,26,20.40
2014,09,13,15,27,20.50
2014,09,13,15,28,20.60
2014,09,13,15,29,20.80
2014,09,13,15,30,20.90
2014,09,13,15,31,21.00
2014,09,13,15,32,21.10
2014,09,13,15,33,21.10
2014,09,13,15,34,21.10
2014,09,13,15,35,21.10
2014,09,13,15,36,21.20
2014,09,13,15,37,21.20
2014,09,13,15,38,21.10
2014,09,13,15,39,21.10
2014,09,13,15,40,21.10
2014,09,13,15,41,21.10
2014,09,13,15,42,21.10
2014,09,13,15,43,21.10
2014,09,13,15,44,21.20
2014,09,13,15,45,21.30
2014,09,13,15,46,21.30
2014,09,13,15,47,21.40
2014,09,13,15,48,21.50
2014,09,13,15,49,21.60
2014,09,13,15,50,21.60
2014,09,13,15,51,21.50
2014,09,13,15,52,21.40
2014,09,13,15,53,21.30
2014,09,13,15,54,21.20
2014,09,13,15,55,21.10
2014,09,13,15,56,20.90
2014,09,13,15,57,20.70
2014,09,13,15,58,20.60
2014,09,13,15,59,20.70
2014,09,13,16,00,20.70
2014,09,13,16,01,20.70
2014,09,13,16,02,20.80
2014,09,13,16,03,20.80
2014,09,13,16,04,20.70
2014,09,13,16,05,20.50
2014,09,13,16,06,20.50
2014,09,13,16,07,20.40
2014,09,13,16,08,20.30
2014,09,13,16,09,20.30
2014,09,13,16,10,20.40
2014,09,13,16,11,20.50
2014,09,13,16,12,20.50
2014,09,13,16,13,20.70
2014,09,13,16,14,20.90
2014,09,13,16,15,21.00
2014,09,13,16,16,21.20
2014,09,13,16,17,21.30
2014,09,13,16,18,21.50
2014,09,13,16,19,21.60
2014,09,13,16,20,21.60
2014,09,13,16,21,21.60
2014,09,13,16,22,21.60
2014,09,13,16,23,21.60
2014,09,13,16,24,21.60
2014,09,13,16,25,21.60
2014,09,13,16,26,21.50
2014,09,13,16,27,21.30
2014,09,13,16,28,21.30
2014,09,13,16,29,21.10
2014,09,13,16,30,21.00
2014,09,13,16,31,20.80
2014,09,13,16,32,20.80
2014,09,13,16,33,20.70
2014,09,13,16,34,20.60
2014,09,13,16,35,20.50
2014,09,13,16,36,20.50
2014,09,13,16,37,20.50
2014,09,13,16,38,20.50
2014,09,13,16,39,20.50
2014,09,13,16,40,20.40
2014,09,13,16,41,20.40
2014,09,13,16,42,20.40
2014,09,13,16,43,20.40
2014,09,13,16,44,20.40
2014,09,13,16,45,20.40
2014,09,13,16,46,20.40
2014,09,13,16,47,20.50
2014,09,13,16,48,20.50
2014,09,13,16,49,20.70
2014,09,13,16,50,20.80
2014,09,13,16,51,20.90
2014,09,13,16,52,20.90
2014,09,13,16,53,20.90
2014,09,13,16,54,20.90
2014,09,13,16,55,20.90
2014,09,13,16,56,20.90
2014,09,13,16,57,20.90
2014,09,13,16,58,20.80
2014,09,13,16,59,20.80
2014,09,13,17,00,20.80
2014,09,13,17,01,20.80
2014,09,13,17,02,20.70
2014,09,13,17,03,20.50
2014,09,13,17,04,20.40
2014,09,13,17,05,20.30
2014,09,13,17,06,20.20
2014,09,13,17,07,20.20
2014,09,13,17,08,20.20
2014,09,13,17,09,20.30
2014,09,13,17,10,20.30
2014,09,13,17,11,20.30
2014,09,13,17,12,20.30
2014,09,13,17,13,20.30
2014,09,13,17,14,20.30
2014,09,13,17,15,20.40
2014,09,13,17,16,20.40
2014,09,13,17,17,20.50
2014,09,13,17,18,20.50
2014,09,13,17,19,20.50
2014,09,13,17,20,20.60
2014,09,13,17,21,20.60
2014,09,13,17,22,20.60
2014,09,13,17,23,20.50
2014,09,13,17,24,20.50
2014,09,13,17,25,20.40
2014,09,13,17,26,20.30
2014,09,13,17,27,20.30
2014,09,13,17,28,20.30
2014,09,13,17,29,20.40
2014,09,13,17,30,20.40
2014,09,13,17,31,20.40
2014,09,13,17,32,20.40
2014,09,13,17,33,20.40
2014,09,13,17,34,20.40
2014,09,13,17,35,20.40
2014,09,13,17,36,20.40
2014,09,13,17,37,20.30
2014,09,13,17,38,20.30
2014,09,13,17,39,20.30
2014,09,13,17,40,20.30
2014,09,13,17,41,20.30
2014,09,13,17,42,20.40
2014,09,13,17,43,20.40
2014,09,13,17,44,20.40
2014,09,13,17,45,20.40
2014,09,13,17,46,20.40
2014,09,13,17,47,20.40
2014,09,13,17,48,20.30
2014,09,13,17,49,20.40
2014,09,13,17,50,20.40
2014,09,13,17,51,20.40
2014,09,13,17,52,20.30
2014,09,13,17,53,20.20
2014,09,13,17,54,20.20
2014,09,13,17,55,20.20
2014,09,13,17,56,20.20
2014,09,13,17,57,20.10
2014,09,13,17,58,20.00
2014,09,13,17,59,19.90
2014,09,13,18,00,19.90
2014,09,13,18,01,19.90
2014,09,13,18,02,19.90
2014,09,13,18,03,19.90
2014,09,13,18,04,19.80
2014,09,13,18,05,19.70
2014,09,13,18,06,19.70
2014,09,13,18,07,19.70
2014,09,13,18,08,19.70
2014,09,13,18,09,19.70
2014,09,13,18,10,19.60
2014,09,13,18,11,19.60
2014,09,13,18,12,19.60
2014,09,13,18,13,19.60
2014,09,13,18,14,19.60
2014,09,13,18,15,19.50
2014,09,13,18,16,19.50
2014,09,13,18,17,19.50
2014,09,13,18,18,19.50
2014,09,13,18,19,19.50
2014,09,13,18,20,19.50
2014,09,13,18,21,19.50
2014,09,13,18,22,19.50
2014,09,13,18,23,19.40
2014,09,13,18,24,19.30
2014,09,13,18,25,19.30
2014,09,13,18,26,19.30
2014,09,13,18,27,19.30
2014,09,13,18,28,19.20
2014,09,13,18,29,19.20
2014,09,13,18,30,19.20
2014,09,13,18,31,19.10
2014,09,13,18,32,19.10
2014,09,13,18,33,19.00
2014,09,13,18,34,18.90
2014,09,13,18,35,18.90
2014,09,13,18,36,18.90
2014,09,13,18,37,18.90
2014,09,13,18,38,18.90
2014,09,13,18,39,18.90
2014,09,13,18,40,18.90
2014,09,13,18,41,18.90
2014,09,13,18,42,18.90
2014,09,13,18,43,18.90
2014,09,13,18,44,18.80
2014,09,13,18,45,18.80
2014,09,13,18,46,18.80
2014,09,13,18,47,18.90
2014,09,13,18,48,18.90
2014,09,13,18,49,18.90
2014,09,13,18,50,18.90
2014,09,13,18,51,18.90
2014,09,13,18,52,18.90
2014,09,13,18,53,18.80
2014,09,13,18,54,18.70
2014,09,13,18,55,18.60
2014,09,13,18,56,18.50
2014,09,13,18,57,18.50
2014,09,13,18,58,18.40
2014,09,13,18,59,18.20
2014,09,13,19,00,18.10
2014,09,13,19,01,18.10
2014,09,13,19,02,17.90
2014,09,13,19,03,17.90
2014,09,13,19,04,17.80
2014,09,13,19,05,17.70
2014,09,13,19,06,17.70
2014,09,13,19,07,17.60
2014,09,13,19,08,17.50
2014,09,13,19,09,17.50
2014,09,13,19,10,17.40
2014,09,13,19,11,17.30
2014,09,13,19,12,17.30
2014,09,13,19,13,17.20
2014,09,13,19,14,17.10
2014,09,13,19,15,17.00
2014,09,13,19,16,17.00
2014,09,13,19,17,16.90
2014,09,13,19,18,16.90
2014,09,13,19,19,16.90
2014,09,13,19,20,16.90
2014,09,13,19,21,16.80
2014,09,13,19,22,16.80
2014,09,13,19,23,16.80
2014,09,13,19,24,16.80
2014,09,13,19,25,16.80
2014,09,13,19,26,16.80
2014,09,13,19,27,16.80
2014,09,13,19,28,16.80
2014,09,13,19,29,16.80
2014,09,13,19,30,16.80
2014,09,13,19,31,16.80
2014,09,13,19,32,16.80
2014,09,13,19,33,16.80
